Retour au catalogue

GOES 7 AKM

ActifMEO
NORAD 28520·ROCKET BODY·🇺🇸 United States

Lancé Feb 26, 1987 depuis Cape Canaveral Space Force Station

Loading…

Prochains Passages (prochaines 24 heures)

TLE

FraisSource: Space-Track

Époque: Sep 14, 2026, 12:47 UTC

1 28520U 87022F   26257.53268715 -.00000310  00000-0  00000+0 0  9999
2 28520  10.0880 318.2881 1058577  92.8873 300.3755  0.98771271 46866

Suivez GOES 7 AKM en temps réel avec AllMySat

Download on the App Store